Location: Bailleul
(50.3375°N, 2.8513°E)
Time: 10:20:02
(UTC+00:00)

KORONAS-FOTON - Pass Details

Date: 16 June 2021
Orbit: 506 x 530 km, 82.4° (Epoch: 01 August)

Event Time Altitude Azimuth Distance (km) Brightness Sun altitude
Exits shadow 21:36:02 - 200° (SSW) 2,230 6.6 -10.6°
Reaches altitude 10° 21:37:14 10° 202° (SSW) 1,734 6.1 -10.7°
Maximum altitude 21:40:59 58° 283° (WNW) 601 4.3 -11.0°
Drops below altitude 10° 21:44:45 10° 3° (N) 1,738 7.4 -11.3°
Sets 21:46:55 0° 8° (N) 2,627 8.3 -11.5°
